SES-9

Last updated on Tue Jul 01 2025 00:02:47 GMT+0000 (Coordinated Universal Time)

1 41380U 16013A 25181.30378374 -.00000347 00000+0 00000+0 0 9992 2 41380 0.0251 305.7169 0002255 142.3109 48.2305 1.00271142 33917
UTC large
Height (km)
Speed (km/s)
/
Latitude / Longitude
Inclination (degrees)
Orbital Period (minutes)
Azimuth
Elevation
Range (km)
Doppler Factor

Next 0 passes for location: London (51.5072 / 0.1276)

Sorry there are no passes over London.